[[{"header":{"parameterUnit":"m.s-1","parameterCategory":1,"la1":30.2991,"la2":30.254,"lo1":-89.0895,"lo2":-89.0444,"dy":0.0017,"dx":0.0017,"nx":28,"ny":28,"refTime":"2025-12-04T03:00:00:Z","depth":0,"parameterNumber":2,"parameterNumberName":"U-component_of_WINDS"},"data":[0,0,0,0,0,0,0,0,0,0,0,0,0,0,0,0,0,0,0,0,0,0,0,0,0,0,0,0,0,0,0,0,0,0,0,0,0,0,0,0,0,0,0,0,0,0,0,0,0,0,0,0,0,0,0,0,0,0,0.9379,0.9378,0,0.9344,0.9344,0.9344,0.9311,0.931,0.931,0.931,0.9273,0.9272,0.9272,0,0,0,0,0,0,0,0,0,0,0,0,0,0.9416,0.9416,0.9379,0.9378,0.9378,0.9344,0.9344,0.9343,0.9311,0.931,0.931,0.931,0.9273,0.9273,0.9272,0,0,0,0,0,0,0,0,0,0,0,0,0,0.9393,0.9416,0.9379,0.9358,0.9356,0.9345,0.9344,0.9343,0.9311,0.931,0.931,0.9309,0.9273,0.9273,0.9272,0.9278,0,0,0.9269,0.9269,0,0,0,0,0,0,0,0,0.9394,0.9391,0.9361,0.9359,0.9357,0.9331,0.9344,0.9322,0.9311,0.9328,0.931,0.9309,0.9293,0.929,0.9285,0.9277,0.9275,0.9269,0.9268,0.9268,0.9268,0,0,0,0,0,0,0,0.9396,0.9393,0.9365,0.9361,0.9358,0.935,0.9346,0.9339,0.9314,0.9326,0.9324,0.932,0.9291,0.9286,0.9284,0.9275,0.9269,0.9268,0.9268,0.9267,0.9271,0.9272,0,0,0,0,0,0,0.9401,0.9394,0.9366,0.9364,0.9374,0.935,0.9345,0.934,0.9314,0.931,0.9321,0.9319,0.9288,0.9285,0.9283,0.9289,0.9268,0.9267,0.9267,0.9271,0.9271,0.9272,0,0,0,0,0,0,0.9402,0.9399,0.9368,0.9379,0.9374,0.935,0.9344,0.934,0.9334,0.931,0.9305,0.932,0.9287,0.9284,0.928,0.9287,0.9267,0.9266,0.927,0.9271,0.9272,0.9302,0,0,0,0,0,0,0.9403,0.9399,0.9401,0.9379,0.9374,0.9366,0.9345,0.9339,0.9333,0.933,0.9308,0.9304,0.9287,0.9282,0.9279,0.9286,0.9265,0.9269,0.927,0.9271,0.93,0.9304,0.9307,0,0,0,0,0,0.9404,0.9411,0.9402,0.9398,0.9376,0.9366,0.9363,0.9344,0.9334,0.9336,0.9321,0.9304,0.9287,0.9281,0.9278,0.9285,0.9268,0.927,0.9271,0.9299,0.9303,0.9307,0,0,0,0,0,0,0.9433,0.9407,0.9397,0.9396,0.9384,0.9361,0.9362,0.9349,0.9338,0.9336,0.9312,0.9307,0.9307,0.9295,0.9289,0.9291,0.9276,0.9277,0.9298,0.9302,0.9305,0.9307,0.9264,0,0,0,0,0,0.944,0.9435,0.9412,0.9413,0.9408,0.9387,0.9382,0.9368,0.9354,0.9348,0.9333,0.9319,0.9311,0.9306,0.9297,0.9299,0.9294,0.9302,0.9306,0.9309,0.9309,0.9311,0.9314,0.9277,0.9277,0.9277,0,0,0.9453,0.9438,0.9436,0.9419,0.9408,0.9403,0.9382,0.9377,0.9373,0.9347,0.9343,0.9331,0.9315,0.9315,0.9314,0.9305,0.9319,0.9311,0.9313,0.9312,0.9313,0.9316,0.9319,0.9278,0.9278,0.9277,0,0,0.9474,0.9462,0.9462,0.9452,0.9436,0.9422,0.9422,0.9402,0.9393,0.9389,0.9369,0.9365,0.9351,0.934,0.9333,0.9353,0.9338,0.9351,0.9368,0.9369,0.9372,0.9375,0.9382,0.9385,0.9352,0.9352,0.9352,0,0.9492,0.9483,0.9464,0.9461,0.9454,0.9432,0.9432,0.9423,0.9405,0.9401,0.9392,0.9375,0.9363,0.936,0.9365,0.936,0.936,0.9352,0.9374,0.9376,0.9378,0.9384,0.9387,0.9353,0.9353,0.9353,0.9353,0,0.9506,0.9501,0.9504,0.9487,0.9481,0.948,0.946,0.9457,0.9444,0.9431,0.9428,0.9412,0.94,0.9399,0.9386,0.9395,0.939,0.9378,0.9362,0.9384,0.9389,0.9392,0.9356,0.9355,0.9355,0.9354,0,0,0.9542,0.9517,0.9518,0.9511,0.9493,0.9488,0.9487,0.9476,0.9473,0.9462,0.946,0.945,0.9439,0.9431,0.9417,0.9419,0.9436,0.9406,0.9406,0.9412,0.9445,0.9454,0.9457,0.9426,0.9427,0.9427,0.9446,0,0.956,0.9555,0.9539,0.9539,0.9535,0.9515,0.9513,0.9502,0.949,0.9485,0.9472,0.9465,0.9452,0.9447,0.9448,0.9434,0.9442,0.9432,0.9424,0.9424,0.9428,0.946,0.9469,0.9487,0.9448,0.9449,0.9449,0,0.9579,0.957,0.957,0.9554,0.9551,0.955,0.9539,0.9534,0.9522,0.9513,0.9506,0.9491,0.9489,0.9475,0.9471,0.9465,0.9461,0.9454,0.9454,0.9452,0.9437,0.9458,0.9492,0.9495,0.9452,0.9452,0.9452,0,0.9605,0.9594,0.9592,0.9587,0.9567,0.9567,0.9559,0.9546,0.9541,0.9532,0.9528,0.9519,0.9514,0.9507,0.9491,0.9482,0.9489,0.9474,0.9482,0.9482,0.9483,0.9483,0.9517,0.9482,0.9482,0.9482,0.9482,0,0.9626,0.9627,0.9604,0.9603,0.9604,0.9586,0.9587,0.9577,0.9566,0.9563,0.9545,0.9543,0.9521,0.9517,0.9504,0.9503,0.9501,0.9494,0.9491,0.9495,0.9496,0.9492,0.949,0.9483,0.9482,0.9482,0.9482,0,0.9655,0.9639,0.9637,0.9619,0.9615,0.9616,0.9601,0.96,0.9588,0.9585,0.9583,0.9565,0.9559,0.9542,0.9531,0.9523,0.9526,0.9519,0.953,0.9528,0.9537,0.9536,0.9568,0.9572,0.9535,0.9535,0.9536,0,0.9668,0.9669,0.9652,0.9649,0.9642,0.9637,0.9633,0.9615,0.9611,0.9598,0.9598,0.9591,0.9584,0.9575,0.9561,0.9553,0.9546,0.9558,0.9545,0.955,0.9546,0.9546,0.9546,0.9561,0.9561,0.9562,0.9562,0,0.9694,0.9687,0.9681,0.9673,0.9669,0.9661,0.9653,0.9652,0.9632,0.9629,0.9623,0.9618,0.9608,0.9601,0.9591,0.9583,0.9569,0.9567,0.9568,0.9572,0.9579,0.9575,0.9537,0.9566,0.9565,0.9565,0.9565,0.9565,0.9715,0.9715,0.9704,0.9698,0.9691,0.9684,0.9682,0.9671,0.9666,0.9657,0.9647,0.9642,0.9631,0.9617,0.961,0.9606,0.9599,0.9601,0.9601,0.9602,0.9604,0.958,0.9604,0.9604,0.9604,0.9604,0.9604,0,0.974,0.9733,0.9728,0.9717,0.9713,0.9703,0.9693,0.969,0.9687,0.9678,0.9672,0.9666,0.966,0.9646,0.9638,0.9638,0.9632,0.9637,0.9636,0.9635,0.9611,0.961,0.9642,0.9642,0.9642,0.9642,0.9642,0.9642,0.9753,0.9752,0.9744,0.974,0.9732,0.9728,0.9724,0.9718,0.971,0.9705,0.97,0.9691,0.968,0.9672,0.9667,0.9663,0.9661,0.9668,0.9662,0.964,0.9636,0.9633,0.9632,0.9667,0.9667,0.9685,0.9686,0.9686]},{"header":{"parameterUnit":"m.s-1","parameterCategory":1,"la1":30.2991,"la2":30.254,"lo1":-89.0895,"lo2":-89.0444,"dy":0.0017,"dx":0.0017,"nx":28,"ny":28,"refTime":"2025-12-04T03:00:00:Z","depth":0,"parameterNumber":3,"parameterNumberName":"V-component_of_WINDS"},"data":[0,0,0,0,0,0,0,0,0,0,0,0,0,0,0,0,0,0,0,0,0,0,0,0,0,0,0,0,0,0,0,0,0,0,0,0,0,0,0,0,0,0,0,0,0,0,0,0,0,0,0,0,0,0,0,0,0,0,-5.5128,-5.5129,0,-5.5267,-5.5269,-5.527,-5.5227,-5.5224,-5.5221,-5.5218,-5.5356,-5.5362,-5.5368,0,0,0,0,0,0,0,0,0,0,0,0,0,-5.482,-5.4826,-5.5128,-5.5129,-5.5131,-5.5267,-5.5269,-5.5271,-5.5227,-5.5224,-5.522,-5.5217,-5.5354,-5.5361,-5.5369,0,0,0,0,0,0,0,0,0,0,0,0,0,-5.4956,-5.4828,-5.5127,-5.5126,-5.5127,-5.5266,-5.5269,-5.5271,-5.5228,-5.5224,-5.5219,-5.5215,-5.5351,-5.536,-5.537,-5.5517,0,0,-5.5399,-5.5403,0,0,0,0,0,0,0,0,-5.4948,-5.4967,-5.5125,-5.5126,-5.5128,-5.5225,-5.521,-5.5353,-5.5229,-5.519,-5.5218,-5.5213,-5.5315,-5.5328,-5.5363,-5.5523,-5.5529,-5.54,-5.5406,-5.541,-5.5413,0,0,0,0,0,0,0,-5.4939,-5.4961,-5.5183,-5.5127,-5.5129,-5.5117,-5.5132,-5.5237,-5.5275,-5.5193,-5.519,-5.5207,-5.5315,-5.5354,-5.5366,-5.5531,-5.54,-5.5408,-5.5414,-5.5418,-5.5819,-5.5824,0,0,0,0,0,0,-5.4929,-5.4953,-5.5178,-5.5187,-5.5026,-5.5126,-5.5142,-5.5198,-5.5274,-5.5282,-5.5211,-5.5205,-5.534,-5.5355,-5.5371,-5.5549,-5.541,-5.5419,-5.5424,-5.5814,-5.582,-5.5825,0,0,0,0,0,0,-5.4922,-5.4949,-5.5173,-5.5069,-5.5097,-5.5136,-5.5199,-5.5203,-5.5242,-5.5288,-5.5294,-5.5244,-5.5337,-5.5357,-5.5481,-5.5553,-5.5423,-5.5432,-5.5808,-5.5816,-5.5823,-5.5905,0,0,0,0,0,0,-5.4914,-5.4947,-5.5005,-5.5071,-5.5103,-5.5282,-5.5204,-5.5209,-5.5259,-5.5253,-5.532,-5.5327,-5.5335,-5.5467,-5.5491,-5.5563,-5.5439,-5.5802,-5.5812,-5.582,-5.5896,-5.5914,-5.5929,0,0,0,0,0,-5.4903,-5.5021,-5.5008,-5.5035,-5.5175,-5.5287,-5.5304,-5.5313,-5.5265,-5.5323,-5.5352,-5.5325,-5.5541,-5.548,-5.5507,-5.5583,-5.5798,-5.5809,-5.582,-5.5888,-5.591,-5.5929,0,0,0,0,0,0,-5.496,-5.503,-5.5016,-5.5159,-5.5218,-5.5279,-5.5352,-5.5336,-5.5408,-5.5398,-5.5404,-5.5419,-5.5547,-5.5577,-5.5508,-5.5729,-5.5662,-5.5679,-5.5705,-5.5727,-5.5743,-5.5733,-5.5447,0,0,0,0,0,-5.4989,-5.5075,-5.5131,-5.5252,-5.5282,-5.5312,-5.5361,-5.5362,-5.5422,-5.5446,-5.5485,-5.5543,-5.5623,-5.5677,-5.5753,-5.59,-5.5914,-5.5965,-5.5982,-5.5996,-5.601,-5.609,-5.6114,-5.5862,-5.5861,-5.5861,0,0,-5.505,-5.5099,-5.5153,-5.5265,-5.531,-5.5398,-5.5333,-5.5428,-5.5493,-5.546,-5.558,-5.5611,-5.5675,-5.5812,-5.5873,-5.5841,-5.6083,-5.601,-5.602,-5.6027,-5.6104,-5.6128,-5.6149,-5.5869,-5.5868,-5.5866,0,0,-5.5207,-5.5253,-5.5359,-5.5407,-5.5477,-5.5496,-5.5522,-5.5587,-5.5606,-5.5727,-5.5704,-5.578,-5.592,-5.5967,-5.6009,-5.6185,-5.6163,-5.621,-5.6298,-5.6375,-5.6395,-5.6413,-5.6476,-5.6498,-5.6224,-5.6224,-5.6224,0,-5.5274,-5.5407,-5.5415,-5.5514,-5.5563,-5.5539,-5.5646,-5.5691,-5.5782,-5.5816,-5.5779,-5.5954,-5.5996,-5.6143,-5.6186,-5.6221,-5.625,-5.6202,-5.6392,-5.641,-5.6426,-5.6486,-5.651,-5.6229,-5.6229,-5.6228,-5.6228,0,-5.5486,-5.5578,-5.5655,-5.5747,-5.5805,-5.5907,-5.5929,-5.5987,-5.5983,-5.6006,-5.613,-5.6179,-5.6266,-5.6301,-5.6297,-5.6448,-5.6426,-5.639,-5.6323,-5.6456,-5.6512,-5.6535,-5.6237,-5.6235,-5.6233,-5.6232,0,0,-5.5682,-5.5777,-5.5805,-5.5847,-5.5923,-5.5994,-5.6094,-5.6182,-5.6231,-5.6294,-5.6379,-5.6497,-5.6466,-5.6514,-5.6515,-5.6584,-5.672,-5.654,-5.6541,-5.6572,-5.6889,-5.6915,-5.6942,-5.6706,-5.671,-5.6714,-5.6884,0,-5.5845,-5.6025,-5.6035,-5.6197,-5.6282,-5.6261,-5.6348,-5.6404,-5.6428,-5.6503,-5.6528,-5.6613,-5.6565,-5.6594,-5.666,-5.669,-5.6784,-5.6677,-5.6783,-5.6787,-5.6768,-5.6971,-5.7,-5.7158,-5.6906,-5.6909,-5.6912,0,-5.606,-5.6133,-5.6304,-5.6369,-5.6405,-5.6484,-5.6565,-5.6637,-5.6699,-5.6711,-5.6766,-5.6758,-5.686,-5.6789,-5.6929,-5.6856,-5.69,-5.6921,-5.6927,-5.6938,-5.6858,-5.6987,-5.7208,-5.7232,-5.6947,-5.6944,-5.6942,0,-5.6186,-5.6327,-5.6447,-5.6483,-5.6562,-5.6618,-5.6653,-5.6711,-5.6763,-5.6833,-5.6866,-5.6946,-5.699,-5.7052,-5.7065,-5.7013,-5.7206,-5.7135,-5.7218,-5.7218,-5.726,-5.7257,-5.7491,-5.7288,-5.7287,-5.7287,-5.7286,0,-5.6368,-5.6474,-5.6506,-5.658,-5.6697,-5.6708,-5.6823,-5.6854,-5.6906,-5.6985,-5.697,-5.7044,-5.7058,-5.7134,-5.7145,-5.726,-5.7279,-5.7291,-5.7293,-5.7293,-5.7292,-5.7322,-5.7312,-5.7293,-5.7292,-5.7291,-5.7289,0,-5.6529,-5.6555,-5.6685,-5.675,-5.6768,-5.6852,-5.6907,-5.6977,-5.7,-5.71,-5.7124,-5.7159,-5.7248,-5.7268,-5.7373,-5.7381,-5.7517,-5.7507,-5.7497,-5.7496,-5.7578,-5.757,-5.7839,-5.7875,-5.7648,-5.765,-5.7652,0,-5.6644,-5.6725,-5.6799,-5.6852,-5.689,-5.6975,-5.7028,-5.7041,-5.7097,-5.7175,-5.7236,-5.7324,-5.7396,-5.7539,-5.7573,-5.7654,-5.7646,-5.7735,-5.7658,-5.7656,-5.7648,-5.7643,-5.7652,-5.775,-5.7752,-5.7754,-5.7756,0,-5.6844,-5.6853,-5.6932,-5.7016,-5.708,-5.7146,-5.7209,-5.7252,-5.7274,-5.7337,-5.743,-5.7485,-5.7594,-5.7682,-5.7763,-5.7797,-5.778,-5.778,-5.7803,-5.7804,-5.7795,-5.7802,-5.7537,-5.7774,-5.7772,-5.7771,-5.777,-5.7769,-5.6986,-5.7057,-5.7121,-5.7209,-5.7258,-5.7317,-5.7387,-5.742,-5.7498,-5.7589,-5.7591,-5.7692,-5.7752,-5.7859,-5.7899,-5.7977,-5.7949,-5.7982,-5.7991,-5.7999,-5.8007,-5.7783,-5.7991,-5.7991,-5.799,-5.799,-5.7989,0,-5.7186,-5.7226,-5.7307,-5.7397,-5.7466,-5.7446,-5.7515,-5.7573,-5.7663,-5.7721,-5.7793,-5.7899,-5.7984,-5.8025,-5.8109,-5.8163,-5.8158,-5.8185,-5.8181,-5.8189,-5.8027,-5.7999,-5.8188,-5.8188,-5.8188,-5.8188,-5.8188,-5.8188,-5.7299,-5.7419,-5.7435,-5.7579,-5.7618,-5.7719,-5.7759,-5.7814,-5.786,-5.7981,-5.8052,-5.8079,-5.813,-5.8218,-5.8294,-5.8304,-5.8336,-5.8367,-5.8373,-5.8221,-5.82,-5.8181,-5.8155,-5.8373,-5.8374,-5.8528,-5.853,-5.8531]}]]